This demonstration page uses our WeatherBlox Daily Observations layout. Learn more.

Left ArrowRight Arrow

36.17497, -115.13722

Hourly Observations for December 4, 2019

Temp ( °F °C ) Dew Point ( °F °C ) Humidity (%) Winds ( mph kmh ) Pressure ( in mb ) Visibility ( mi km ) Precip ( " mm )
12:53 am 00:53 Clear 51 10.6 38 3.3 61 61 Calm 30.09 1019 10 16 0.00 0.00
1:53 am 01:53 Mostly Cloudy 50 10 39 3.9 66 66 Calm 30.07 1018 10 16 0.00 0.00
2:53 am 02:53 Cloudy 50 10 39 3.9 66 66 W 3 6 30.06 1018 10 16 0.00 0.00
3:53 am 03:53 Cloudy 50 10 40 4.4 68 68 Calm 30.04 1017 10 16 0.00 0.00
4:53 am 04:53 Cloudy 50 10 40 4.4 68 68 Calm 30.04 1017 10 16 0.00 0.00
5:53 am 05:53 Cloudy 50 10 41 5 71 71 Calm 30.06 1018 10 16 0.00 0.00
6:53 am 06:53 Cloudy with Light Rain 50 10 40 4.4 68 68 Calm 30.05 1018 10 16 0.00 0.00
7:53 am 07:53 Cloudy 50 10 41 5 71 71 Calm 30.05 1018 10 16 0.00 0.00
8:53 am 08:53 Cloudy 52 11.1 43 6.1 72 72 Calm 30.05 1018 10 16 0.00 0.00
9:53 am 09:53 Cloudy with Light Rain 52 11.1 43 6.1 72 72 NE 3 6 30.06 1018 8 13 0.00 0.00
10:53 am 10:53 Cloudy with Light Rain 52 11.1 43 6.1 72 72 Calm 30.02 1017 10 16 0.00 0.00
11:53 am 11:53 Cloudy with Rain 50 10 45 7.2 83 83 Calm 29.97 1015 4 6 0.08 2.03
12:53 pm 12:53 Cloudy with Light Rain 50 10 46 7.8 86 86 SW 7 11 29.98 1015 3 5 0.05 1.27
1:14 pm 13:14 Cloudy with Rain 49 9.4 47 8.3 93 93 S 6 9 29.93 1014 3 5 0.08 2.03
1:53 pm 13:53 Cloudy with Light Rain 49 9.4 47 8.3 93 93 SE 7 11 29.95 1014 3 5 0.17 4.32
2:08 pm 14:08 Cloudy with Rain 49 9.4 47 8.3 93 93 SE 7 11 29.92 1013 3 5 0.02 0.51
2:15 pm 14:15 Cloudy with Light Rain 49 9.4 47 8.3 93 93 SE 7 11 29.93 1014 3 5 0.04 1.02
2:29 pm 14:29 Cloudy with Light Rain 49 9.4 47 8.3 93 93 ESE 6 9 29.92 1013 3 5 0.07 1.78
2:53 pm 14:53 Cloudy 49 9.4 47 8.3 93 93 E 6 9 29.95 1014 3 5 0.07 1.78
3:00 pm 15:00 Cloudy with Light Rain 48 8.9 47 8.3 96 96 E 8 13 29.90 1013 3 5 0.00 0.00
3:14 pm 15:14 Mostly Cloudy 48 8.9 47 8.3 96 96 ESE 7 11 29.89 1012 3 5 0.00 0.00
3:53 pm 15:53 Cloudy 48 8.9 47 8.3 96 96 Calm 29.96 1015 3 5 0.00 0.00
4:11 pm 16:11 Cloudy 49 9.4 47 8.3 93 93 Calm 29.91 1013 10 16 0.00 0.00
4:53 pm 16:53 Cloudy 49 9.4 46 7.8 90 90 Calm 29.96 1015 10 16 0.00 0.00
5:03 pm 17:03 Cloudy 49 9.4 46 7.8 90 90 Calm 29.93 1014 10 16 0.00 0.00
5:53 pm 17:53 Cloudy with Light Rain 49 9.4 47 8.3 93 93 E 3 6 29.96 1015 10 16 0.00 0.00
6:53 pm 18:53 Cloudy 49 9.4 47 8.3 93 93 SSE 3 6 29.97 1015 10 16 0.00 0.00
7:53 pm 19:53 Cloudy 49 9.4 47 8.3 93 93 ENE 5 7 29.98 1015 10 16 0.00 0.00
8:53 pm 20:53 Cloudy 50 10 47 8.3 89 89 E 7 11 29.99 1016 10 16 0.00 0.00
9:09 pm 21:09 Cloudy N/A N/A N/A ENE 3 6 N/A 10 16 0.00 0.00
9:25 pm 21:25 Cloudy N/A N/A N/A ESE 9 15 N/A 10 16 0.00 0.00
9:36 pm 21:36 Cloudy N/A N/A N/A ESE 8 13 N/A 10 16 0.00 0.00
9:43 pm 21:43 Cloudy N/A N/A N/A ESE 9 15 N/A 10 16 0.00 0.00
9:53 pm 21:53 Cloudy N/A N/A N/A ESE 9 15 N/A 10 16 0.00 0.00
10:12 pm 22:12 Cloudy N/A N/A N/A SE 8 13 N/A 10 16 0.00 0.00
10:53 pm 22:53 Mostly Cloudy N/A N/A N/A S 12 19 N/A 10 16 0.00 0.00
11:53 pm 23:53 Clear N/A N/A N/A NNE 5 7 N/A 10 16 0.00 0.00

Powered by AerisWeather